• In Russia
  • List of Countries
  • For 7 days
  • Water Temperature
  • Satellite Maps
  • Weather Map
  • Weather Widgets
  • user-avatar
    Login

    Hourly Weather Kinshasa

    Today, 10 December, Monday

    Time Temperature Precipitation Wind Pressure Humidity
    00:00 +23°C° 0 mm 0 mps 709 mmHg 40%
    01:00 +22°C° 0 mm 0 mps 709 mmHg 41%
    02:00 +22°C° 0 mm 0 mps 709 mmHg 42%
    03:00 +21°C° 0 mm 0 mps 708 mmHg 43%
    04:00 +21°C° 0 mm 0 mps 708 mmHg 44%
    05:00 +21°C° 0 mm 0 mps 709 mmHg 44%
    06:00 +21°C° 0 mm 0 mps 709 mmHg 44%
    07:00 +22°C° 0 mm 0 mps 709 mmHg 44%
    08:00 +25°C° 0 mm 0 mps 710 mmHg 37%
    09:00 +31°C° 0 mm 1 mps 710 mmHg 30%
    10:00 +34°C° 0 mm 1 mps 710 mmHg 22%
    11:00 +35°C° 0 mm 1 mps 710 mmHg 20%
    12:00 +36°C° 0 mm 1 mps 709 mmHg 18%
    13:00 +38°C° 0 mm 2 mps 708 mmHg 16%
    14:00 +37°C° 0 mm 1 mps 708 mmHg 16%
    15:00 +37°C° 0 mm 1 mps 707 mmHg 16%
    16:00 +37°C° 0 mm 1 mps 706 mmHg 16%
    17:00 +34°C° 0 mm 1 mps 706 mmHg 21%
    18:00 +31°C° 0 mm 1 mps 707 mmHg 25%
    19:00 +28°C° 0 mm 1 mps 707 mmHg 29%
    20:00 +25°C° 0 mm 0 mps 707 mmHg 31%
    21:00 +25°C° 0 mm 0 mps 708 mmHg 33%
    22:00 +24°C° 0 mm 0 mps 708 mmHg 34%
    23:00 +23°C° 0 mm 0 mps 708 mmHg 35%

    Tomorrow, 11 December, Tuesday

    Time Temperature Precipitation Wind Pressure Humidity
    00:00 +23°C° 0 mm 0 mps 708 mmHg 36%
    01:00 +23°C° 0 mm 0 mps 708 mmHg 36%
    02:00 +24°C° 0 mm 1 mps 708 mmHg 39%
    03:00 +23°C° 0 mm 1 mps 708 mmHg 41%
    04:00 +23°C° 0 mm 1 mps 708 mmHg 44%
    05:00 +23°C° 0 mm 1 mps 708 mmHg 47%
    06:00 +24°C° 0 mm 1 mps 708 mmHg 50%
    07:00 +24°C° 0 mm 1 mps 709 mmHg 54%
    08:00 +27°C° 0 mm 1 mps 709 mmHg 49%
    09:00 +30°C° 0 mm 1 mps 710 mmHg 45%
    10:00 +33°C° 0 mm 1 mps 710 mmHg 40%
    11:00 +35°C° 0 mm 1 mps 710 mmHg 35%
    12:00 +37°C° 0 mm 1 mps 709 mmHg 29%
    13:00 +40°C° 0 mm 1 mps 708 mmHg 23%
    14:00 +39°C° 0 mm 1 mps 708 mmHg 23%
    15:00 +37°C° 0 mm 1 mps 707 mmHg 24%
    16:00 +36°C° 0 mm 1 mps 706 mmHg 24%
    17:00 +34°C° 0 mm 1 mps 706 mmHg 29%
    18:00 +31°C° 0 mm 1 mps 707 mmHg 34%
    19:00 +29°C° 0 mm 1 mps 707 mmHg 39%
    20:00 +28°C° 0 mm 1 mps 707 mmHg 44%
    21:00 +27°C° 0 mm 1 mps 708 mmHg 49%
    22:00 +26°C° 0 mm 1 mps 708 mmHg 54%
    23:00 +26°C° 0 mm 1 mps 708 mmHg 58%

    Day after tomorrow, 12 December, Wednesday

    Time Temperature Precipitation Wind Pressure Humidity
    00:00 +23°C° 0 mm 0 mps 708 mmHg 62%
    01:00 +22°C° 0 mm 0 mps 708 mmHg 66%
    02:00 +22°C° 0 mm 0 mps 708 mmHg 69%
    03:00 +24°C° 0 mm 1 mps 708 mmHg 71%
    04:00 +23°C° 0 mm 1 mps 707 mmHg 74%
    05:00 +24°C° 0.1 mm 1 mps 708 mmHg 74%
    06:00 +24°C° 0.1 mm 1 mps 709 mmHg 75%
    07:00 +24°C° 0.1 mm 1 mps 709 mmHg 76%
    08:00 +27°C° 0 mm 1 mps 710 mmHg 66%
    09:00 +30°C° 0 mm 1 mps 710 mmHg 57%
    10:00 +33°C° 0 mm 1 mps 711 mmHg 47%
    11:00 +34°C° 0 mm 1 mps 710 mmHg 41%
    12:00 +35°C° 0 mm 1 mps 709 mmHg 36%
    13:00 +36°C° 0 mm 1 mps 708 mmHg 30%
    14:00 +36°C° 0 mm 1 mps 707 mmHg 30%
    15:00 +35°C° 0 mm 1 mps 707 mmHg 29%
    16:00 +35°C° 0 mm 1 mps 706 mmHg 28%
    17:00 +33°C° 0 mm 1 mps 706 mmHg 35%
    18:00 +30°C° 0 mm 1 mps 707 mmHg 42%
    19:00 +28°C° 0 mm 1 mps 707 mmHg 49%
    20:00 +27°C° 0 mm 1 mps 708 mmHg 55%
    21:00 +26°C° 0 mm 1 mps 708 mmHg 60%
    22:00 +26°C° 0 mm 1 mps 708 mmHg 66%
    23:00 +25°C° 0 mm 1 mps 708 mmHg 71%

    13 December, Thursday

    Time Temperature Precipitation Wind Pressure Humidity
    00:00 +24°C° 0 mm 1 mps 708 mmHg 75%
    01:00 +24°C° 0 mm 1 mps 708 mmHg 79%
    02:00 +23°C° 0 mm 1 mps 708 mmHg 81%
    03:00 +23°C° 0 mm 1 mps 708 mmHg 84%
    04:00 +23°C° 0 mm 1 mps 708 mmHg 86%
    05:00 +23°C° 0.1 mm 1 mps 709 mmHg 84%
    06:00 +23°C° 0.1 mm 1 mps 709 mmHg 82%
    07:00 +24°C° 0.1 mm 1 mps 710 mmHg 81%
    08:00 +27°C° 0 mm 1 mps 710 mmHg 70%
    09:00 +29°C° 0 mm 1 mps 711 mmHg 59%
    10:00 +32°C° 0 mm 2 mps 711 mmHg 48%
    11:00 +34°C° 0 mm 1 mps 710 mmHg 40%
    12:00 +37°C° 0 mm 1 mps 709 mmHg 33%
    13:00 +40°C° 0 mm 1 mps 709 mmHg 26%
    14:00 +39°C° 0 mm 1 mps 708 mmHg 26%
    15:00 +35°C° 0 mm 0 mps 707 mmHg 26%
    16:00 +34°C° 0 mm 0 mps 707 mmHg 26%
    17:00 +34°C° 0 mm 1 mps 707 mmHg 31%
    18:00 +31°C° 0 mm 1 mps 707 mmHg 37%
    19:00 +29°C° 0 mm 1 mps 707 mmHg 42%
    20:00 +28°C° 0 mm 1 mps 708 mmHg 46%
    21:00 +27°C° 0 mm 1 mps 708 mmHg 49%
    22:00 +24°C° 0 mm 0 mps 708 mmHg 53%
    23:00 +24°C° 0 mm 0 mps 708 mmHg 56%

    14 December, Friday

    Time Temperature Precipitation Wind Pressure Humidity
    00:00 +23°C° 0 mm 0 mps 708 mmHg 58%
    01:00 +25°C° 0 mm 1 mps 708 mmHg 60%
    02:00 +25°C° 0 mm 1 mps 707 mmHg 63%
    03:00 +24°C° 0 mm 1 mps 707 mmHg 66%
    04:00 +24°C° 0 mm 1 mps 707 mmHg 69%
    05:00 +24°C° 0 mm 1 mps 708 mmHg 69%
    06:00 +25°C° 0 mm 1 mps 709 mmHg 69%
    07:00 +25°C° 0 mm 1 mps 709 mmHg 68%
    08:00 +28°C° 0 mm 1 mps 710 mmHg 58%
    09:00 +31°C° 0 mm 1 mps 710 mmHg 48%
    10:00 +34°C° 0 mm 1 mps 710 mmHg 37%
    11:00 +36°C° 0 mm 1 mps 709 mmHg 31%
    12:00 +38°C° 0 mm 2 mps 709 mmHg 24%
    13:00 +39°C° 0 mm 2 mps 708 mmHg 18%
    14:00 +39°C° 0 mm 2 mps 707 mmHg 17%
    15:00 +39°C° 0 mm 1 mps 707 mmHg 16%
    16:00 +39°C° 0 mm 1 mps 706 mmHg 15%
    17:00 +35°C° 0 mm 1 mps 706 mmHg 18%
    18:00 +32°C° 0 mm 1 mps 707 mmHg 22%
    19:00 +29°C° 0 mm 1 mps 707 mmHg 25%
    20:00 +26°C° 0 mm 0 mps 707 mmHg 28%
    21:00 +25°C° 0 mm 0 mps 708 mmHg 32%
    22:00 +24°C° 0 mm 0 mps 708 mmHg 35%
    23:00 +24°C° 0 mm 0 mps 708 mmHg 39%

    15 December, Saturday

    Time Temperature Precipitation Wind Pressure Humidity
    00:00 +25°C° 0 mm 1 mps 708 mmHg 42%
    01:00 +25°C° 0 mm 1 mps 707 mmHg 46%
    02:00 +24°C° 0 mm 1 mps 707 mmHg 50%
    03:00 +24°C° 0 mm 1 mps 707 mmHg 55%
    04:00 +24°C° 0 mm 1 mps 707 mmHg 59%
    05:00 +24°C° 0 mm 1 mps 708 mmHg 60%
    06:00 +24°C° 0 mm 1 mps 708 mmHg 61%
    07:00 +24°C° 0 mm 1 mps 709 mmHg 63%
    08:00 +28°C° 0 mm 1 mps 709 mmHg 52%
    09:00 +31°C° 0 mm 1 mps 710 mmHg 42%
    10:00 +34°C° 0 mm 1 mps 710 mmHg 32%
    11:00 +35°C° 0 mm 1 mps 709 mmHg 27%
    12:00 +38°C° 0 mm 2 mps 708 mmHg 21%
    13:00 +39°C° 0 mm 2 mps 708 mmHg 16%
    14:00 +39°C° 0 mm 2 mps 707 mmHg 15%
    15:00 +39°C° 0 mm 1 mps 707 mmHg 15%
    16:00 +39°C° 0 mm 1 mps 706 mmHg 14%
    17:00 +35°C° 0 mm 1 mps 706 mmHg 18%
    18:00 +32°C° 0 mm 1 mps 706 mmHg 22%
    19:00 +27°C° 0 mm 0 mps 707 mmHg 25%
    20:00 +26°C° 0 mm 0 mps 707 mmHg 28%
    21:00 +25°C° 0 mm 0 mps 707 mmHg 32%
    22:00 +24°C° 0 mm 0 mps 708 mmHg 35%
    23:00 +26°C° 0 mm 1 mps 707 mmHg 41%
    Show more